{"data":{"norad_id":65028,"epoch":"2026-09-20T22:14:18.306528Z","epoch_age_seconds":87312,"freshness":"FRESH","line1":"1 65028U 25161P   26263.92660077  .00025043  00000+0  74954-3 0  9997","line2":"2 65028  53.1573 103.6483 0000609 152.1896 207.9140 15.34412404 65270","mean_motion":15.34412404,"eccentricity":6.09e-5,"inclination_deg":53.1573,"raan_deg":103.6483,"arg_perigee_deg":152.1896,"mean_anomaly_deg":207.914,"bstar":0.00074954,"rev_number":6527,"period_min":93.846999427671,"perigee_km":462.24976822801,"apogee_km":463.08297807886,"semimajor_km":6840.8033731534,"source":"CELESTRAK","updated_at":"2026-09-21T09:00:35.494266Z"}}